This demonstration page uses our WeatherBlox Daily Observations layout. Learn more.

Left ArrowRight Arrow

34.74481, -87.66753

Hourly Observations for April 4, 2021

Temp ( °F °C ) Dew Point ( °F °C ) Humidity (%) Winds ( mph kmh ) Pressure ( in mb ) Visibility ( mi km ) Precip ( " mm )
12:53 am 00:53 Clear 43 6.1 35 1.7 74 74 Calm 30.33 1027 10 16 0.00 0.00
1:53 am 01:53 Clear 43 6.1 36 2.2 76 76 Calm 30.32 1027 10 16 0.00 0.00
2:53 am 02:53 Clear 43 6.1 37 2.8 80 80 Calm 30.31 1027 10 16 0.00 0.00
3:53 am 03:53 Clear 42 5.6 36 2.2 79 79 Calm 30.32 1027 10 16 0.00 0.00
4:53 am 04:53 Clear 41 5 36 2.2 82 82 Calm 30.32 1027 10 16 0.00 0.00
5:53 am 05:53 Clear 40 4.4 35 1.7 83 83 Calm 30.32 1027 8 13 0.00 0.00
6:53 am 06:53 Sunny 38 3.3 34 1.1 86 86 Calm 30.34 1027 8 13 0.00 0.00
7:53 am 07:53 Sunny 45 7.2 38 3.3 77 77 Calm 30.34 1027 10 16 0.00 0.00
8:53 am 08:53 Sunny 52 11.1 40 4.4 64 64 Calm 30.33 1027 10 16 0.00 0.00
9:53 am 09:53 Sunny 60 15.6 36 2.2 41 41 Calm 30.33 1027 10 16 0.00 0.00
10:53 am 10:53 Sunny 65 18.3 36 2.2 34 34 VRB 3 6 30.32 1027 10 16 0.00 0.00
11:53 am 11:53 Sunny 68 20 36 2.2 31 31 WSW 6 9 30.30 1026 10 16 0.00 0.00
12:53 pm 12:53 Sunny 70 21.1 33 0.6 26 26 SSW 5 7 30.27 1025 10 16 0.00 0.00
1:53 pm 13:53 Sunny 72 22.2 32 0 23 23 Calm 30.24 1024 10 16 0.00 0.00
2:53 pm 14:53 Sunny 74 23.3 32 0 21 21 Calm 30.22 1023 10 16 0.00 0.00
3:53 pm 15:53 Sunny 75 23.9 34 1.1 22 22 Calm 30.19 1022 10 16 0.00 0.00
4:53 pm 16:53 Sunny 75 23.9 31 -0.6 20 20 SSW 6 9 30.17 1022 10 16 0.00 0.00
5:53 pm 17:53 Sunny 74 23.3 31 -0.6 20 20 WSW 3 6 30.17 1022 10 16 0.00 0.00
6:53 pm 18:53 Sunny 71 21.7 35 1.7 27 27 WSW 5 7 30.16 1022 10 16 0.00 0.00
7:53 pm 19:53 Clear 63 17.2 37 2.8 38 38 Calm 30.17 1022 10 16 0.00 0.00
8:53 pm 20:53 Clear 56 13.3 40 4.4 55 55 SSE 3 6 30.18 1022 10 16 0.00 0.00
9:53 pm 21:53 Clear 55 12.8 40 4.4 57 57 Calm 30.18 1022 10 16 0.00 0.00
10:53 pm 22:53 Clear 53 11.7 40 4.4 61 61 Calm 30.17 1022 10 16 0.00 0.00
11:53 pm 23:53 Clear 51 10.6 40 4.4 66 66 Calm 30.17 1022 10 16 0.00 0.00

Powered by AerisWeather